Year,Month,Day,Hour,Minute,Value (Times are PST for temperature in C)
2008,07,16,00,00,16.00
2008,07,16,00,01,16.10
2008,07,16,00,02,16.20
2008,07,16,00,03,16.30
2008,07,16,00,04,16.40
2008,07,16,00,05,16.50
2008,07,16,00,06,16.60
2008,07,16,00,07,16.60
2008,07,16,00,08,16.60
2008,07,16,00,09,16.70
2008,07,16,00,10,16.70
2008,07,16,00,11,16.70
2008,07,16,00,12,16.80
2008,07,16,01,02,15.80
2008,07,16,01,03,15.80
2008,07,16,01,04,15.80
2008,07,16,01,05,15.70
2008,07,16,01,06,15.70
2008,07,16,01,07,15.70
2008,07,16,01,08,15.60
2008,07,16,01,09,15.50
2008,07,16,01,10,15.40
2008,07,16,01,11,15.40
2008,07,16,01,12,15.30
2008,07,16,01,13,15.20
2008,07,16,01,14,15.20
2008,07,16,01,15,15.10
2008,07,16,01,16,15.00
2008,07,16,01,17,15.00
2008,07,16,01,18,15.00
2008,07,16,01,19,15.00
2008,07,16,01,20,15.00
2008,07,16,01,21,15.00
2008,07,16,01,22,15.00
2008,07,16,01,23,14.90
2008,07,16,01,24,14.80
2008,07,16,01,25,14.80
2008,07,16,01,26,14.70
2008,07,16,01,27,14.70
2008,07,16,01,28,14.70
2008,07,16,01,29,14.60
2008,07,16,01,30,14.60
2008,07,16,01,31,14.60
2008,07,16,01,32,14.60
2008,07,16,01,33,14.60
2008,07,16,01,34,14.50
2008,07,16,01,35,14.50
2008,07,16,01,36,14.50
2008,07,16,01,37,14.40
2008,07,16,01,38,14.40
2008,07,16,01,39,14.40
2008,07,16,01,40,14.30
2008,07,16,01,41,14.30
2008,07,16,01,42,14.20
2008,07,16,01,43,14.20
2008,07,16,01,44,14.10
2008,07,16,01,45,14.00
2008,07,16,01,46,13.90
2008,07,16,01,47,13.80
2008,07,16,01,48,13.80
2008,07,16,01,49,13.70
2008,07,16,01,50,13.60
2008,07,16,01,51,13.60
2008,07,16,01,52,13.50
2008,07,16,01,53,13.40
2008,07,16,01,54,13.40
2008,07,16,01,55,13.40
2008,07,16,01,56,13.40
2008,07,16,01,57,13.40
2008,07,16,01,58,13.40
2008,07,16,01,59,13.40
2008,07,16,02,00,13.40
2008,07,16,02,01,13.40
2008,07,16,02,02,13.40
2008,07,16,02,03,13.40
2008,07,16,02,04,13.40
2008,07,16,02,05,13.30
2008,07,16,02,06,13.30
2008,07,16,02,07,13.30
2008,07,16,02,08,13.20
2008,07,16,02,09,13.20
2008,07,16,02,10,13.20
2008,07,16,02,11,13.20
2008,07,16,02,12,13.20
2008,07,16,02,13,13.20
2008,07,16,02,14,13.10
2008,07,16,02,15,13.10
2008,07,16,02,16,13.10
2008,07,16,02,17,13.10
2008,07,16,02,18,13.00
2008,07,16,02,19,13.00
2008,07,16,02,20,12.90
2008,07,16,02,21,12.90
2008,07,16,02,22,12.90
2008,07,16,02,23,12.90
2008,07,16,02,24,12.90
2008,07,16,02,25,12.90
2008,07,16,02,26,12.90
2008,07,16,02,27,12.90
2008,07,16,02,28,12.90
2008,07,16,02,29,12.90
2008,07,16,02,30,12.90
2008,07,16,02,31,12.90
2008,07,16,02,32,12.90
2008,07,16,02,33,12.80
2008,07,16,02,34,12.90
2008,07,16,02,35,12.90
2008,07,16,02,36,12.90
2008,07,16,02,37,12.90
2008,07,16,02,38,12.90
2008,07,16,02,39,12.90
2008,07,16,02,40,12.90
2008,07,16,02,41,12.80
2008,07,16,02,42,12.80
2008,07,16,02,43,12.80
2008,07,16,02,44,12.70
2008,07,16,02,45,12.70
2008,07,16,02,46,12.70
2008,07,16,02,47,12.70
2008,07,16,02,48,12.60
2008,07,16,02,49,12.60
2008,07,16,02,50,12.50
2008,07,16,02,51,12.50
2008,07,16,02,52,12.40
2008,07,16,02,53,12.40
2008,07,16,02,54,12.40
2008,07,16,02,55,12.40
2008,07,16,02,56,12.30
2008,07,16,02,57,12.30
2008,07,16,02,58,12.30
2008,07,16,02,59,12.30
2008,07,16,03,00,12.20
2008,07,16,03,01,12.20
2008,07,16,03,02,12.20
2008,07,16,03,03,12.20
2008,07,16,03,04,12.20
2008,07,16,03,05,12.10
2008,07,16,03,06,12.10
2008,07,16,03,07,12.10
2008,07,16,03,08,12.10
2008,07,16,03,09,12.10
2008,07,16,03,10,12.10
2008,07,16,03,11,12.10
2008,07,16,03,12,12.00
2008,07,16,03,13,12.00
2008,07,16,03,14,12.00
2008,07,16,03,15,12.00
2008,07,16,03,16,11.90
2008,07,16,03,17,11.90
2008,07,16,03,18,11.90
2008,07,16,03,19,11.90
2008,07,16,03,20,11.80
2008,07,16,03,21,11.80
2008,07,16,03,22,11.80
2008,07,16,03,23,11.80
2008,07,16,03,24,11.80
2008,07,16,03,25,11.80
2008,07,16,03,26,11.80
2008,07,16,03,27,11.80
2008,07,16,03,28,11.80
2008,07,16,03,29,11.80
2008,07,16,03,30,11.80
2008,07,16,03,31,11.80
2008,07,16,03,32,11.80
2008,07,16,03,33,11.80
2008,07,16,03,34,11.90
2008,07,16,03,35,11.80
2008,07,16,03,36,11.80
2008,07,16,03,37,11.80
2008,07,16,03,38,11.80
2008,07,16,03,39,11.80
2008,07,16,03,40,11.80
2008,07,16,03,41,11.80
2008,07,16,03,42,11.80
2008,07,16,03,43,11.80
2008,07,16,03,44,11.80
2008,07,16,03,45,11.80
2008,07,16,03,46,11.80
2008,07,16,03,47,11.90
2008,07,16,03,48,11.90
2008,07,16,03,49,11.90
2008,07,16,03,50,11.90
2008,07,16,03,51,11.90
2008,07,16,03,52,11.90
2008,07,16,03,53,11.90
2008,07,16,03,54,11.90
2008,07,16,03,55,11.90
2008,07,16,03,56,12.00
2008,07,16,03,57,12.00
2008,07,16,03,58,12.00
2008,07,16,03,59,12.00
2008,07,16,04,00,12.00
2008,07,16,04,01,11.90
2008,07,16,04,02,11.90
2008,07,16,04,03,11.90
2008,07,16,04,04,11.90
2008,07,16,04,05,11.90
2008,07,16,04,06,12.00
2008,07,16,04,07,12.00
2008,07,16,04,08,12.00
2008,07,16,04,09,12.10
2008,07,16,04,10,12.10
2008,07,16,04,11,12.10
2008,07,16,04,12,12.10
2008,07,16,04,13,12.10
2008,07,16,04,14,12.10
2008,07,16,04,15,12.10
2008,07,16,04,16,12.20
2008,07,16,04,17,12.20
2008,07,16,04,18,12.20
2008,07,16,04,19,12.10
2008,07,16,04,20,12.10
2008,07,16,04,21,12.10
2008,07,16,04,22,12.10
2008,07,16,04,23,12.10
2008,07,16,04,24,12.10
2008,07,16,04,25,12.10
2008,07,16,04,26,12.10
2008,07,16,04,27,12.10
2008,07,16,04,28,12.10
2008,07,16,04,29,12.20
2008,07,16,04,30,12.20
2008,07,16,04,31,12.20
2008,07,16,04,32,12.20
2008,07,16,04,33,12.20
2008,07,16,04,34,12.20
2008,07,16,04,35,12.20
2008,07,16,04,36,12.10
2008,07,16,04,37,12.10
2008,07,16,04,38,12.10
2008,07,16,04,39,12.10
2008,07,16,04,40,12.10
2008,07,16,04,41,12.10
2008,07,16,04,42,12.10
2008,07,16,04,43,12.10
2008,07,16,04,44,12.00
2008,07,16,04,45,12.00
2008,07,16,04,46,11.90
2008,07,16,04,47,11.90
2008,07,16,04,48,11.90
2008,07,16,04,49,11.80
2008,07,16,04,50,11.80
2008,07,16,04,51,11.80
2008,07,16,04,52,11.70
2008,07,16,04,53,11.70
2008,07,16,04,54,11.70
2008,07,16,04,55,11.70
2008,07,16,04,56,11.70
2008,07,16,04,57,11.70
2008,07,16,04,58,11.70
2008,07,16,04,59,11.70
2008,07,16,05,00,11.70
2008,07,16,05,01,11.70
2008,07,16,05,02,11.60
2008,07,16,05,03,11.60
2008,07,16,05,04,11.60
2008,07,16,05,05,11.60
2008,07,16,05,06,11.60
2008,07,16,05,07,11.60
2008,07,16,05,08,11.60
2008,07,16,05,09,11.60
2008,07,16,05,10,11.60
2008,07,16,05,11,11.60
2008,07,16,05,12,11.60
2008,07,16,05,13,11.50
2008,07,16,05,14,11.50
2008,07,16,05,15,11.50
2008,07,16,05,16,11.60
2008,07,16,05,17,11.60
2008,07,16,05,18,11.60
2008,07,16,05,19,11.60
2008,07,16,05,20,11.50
2008,07,16,05,21,11.60
2008,07,16,05,22,11.60
2008,07,16,05,23,11.50
2008,07,16,05,24,11.50
2008,07,16,05,25,11.50
2008,07,16,05,26,11.50
2008,07,16,05,27,11.40
2008,07,16,05,28,11.40
2008,07,16,05,29,11.40
2008,07,16,05,30,11.40
2008,07,16,05,31,11.50
2008,07,16,05,32,11.50
2008,07,16,05,33,11.50
2008,07,16,05,34,11.50
2008,07,16,05,35,11.50
2008,07,16,05,36,11.50
2008,07,16,05,37,11.50
2008,07,16,05,38,11.50
2008,07,16,05,39,11.50
2008,07,16,05,40,11.50
2008,07,16,05,41,11.50
2008,07,16,05,42,11.50
2008,07,16,05,43,11.50
2008,07,16,05,44,11.60
2008,07,16,05,45,11.60
2008,07,16,05,46,11.60
2008,07,16,05,47,11.50
2008,07,16,05,48,11.50
2008,07,16,05,49,11.50
2008,07,16,05,50,11.60
2008,07,16,05,51,11.60
2008,07,16,05,52,11.60
2008,07,16,05,53,11.60
2008,07,16,05,54,11.60
2008,07,16,05,55,11.60
2008,07,16,05,56,11.60
2008,07,16,05,57,11.60
2008,07,16,05,58,11.60
2008,07,16,05,59,11.70
2008,07,16,06,00,11.70
2008,07,16,06,01,11.70
2008,07,16,06,02,11.70
2008,07,16,06,03,11.70
2008,07,16,06,04,11.70
2008,07,16,06,05,11.80
2008,07,16,06,06,11.80
2008,07,16,06,07,11.80
2008,07,16,06,08,11.80
2008,07,16,06,09,11.90
2008,07,16,06,10,11.90
2008,07,16,06,11,11.90
2008,07,16,06,12,11.90
2008,07,16,06,13,12.00
2008,07,16,06,14,12.00
2008,07,16,06,15,12.00
2008,07,16,06,16,12.10
2008,07,16,06,17,12.10
2008,07,16,06,18,12.10
2008,07,16,06,19,12.10
2008,07,16,06,20,12.20
2008,07,16,06,21,12.20
2008,07,16,06,22,12.20
2008,07,16,06,23,12.20
2008,07,16,06,24,12.20
2008,07,16,06,25,12.20
2008,07,16,06,26,12.20
2008,07,16,06,27,12.20
2008,07,16,06,28,12.30
2008,07,16,06,29,12.30
2008,07,16,06,30,12.30
2008,07,16,06,31,12.30
2008,07,16,06,32,12.30
2008,07,16,06,33,12.30
2008,07,16,06,34,12.40
2008,07,16,06,35,12.40
2008,07,16,06,36,12.40
2008,07,16,06,37,12.50
2008,07,16,06,38,12.50
2008,07,16,06,39,12.60
2008,07,16,06,40,12.60
2008,07,16,06,41,12.60
2008,07,16,06,42,12.70
2008,07,16,06,43,12.70
2008,07,16,06,44,12.70
2008,07,16,06,45,12.80
2008,07,16,06,46,12.80
2008,07,16,06,47,12.90
2008,07,16,06,48,12.90
2008,07,16,06,49,12.90
2008,07,16,06,50,13.00
2008,07,16,06,51,13.10
2008,07,16,06,52,13.10
2008,07,16,06,53,13.20
2008,07,16,06,54,13.20
2008,07,16,06,55,13.20
2008,07,16,06,56,13.30
2008,07,16,06,57,13.30
2008,07,16,06,58,13.40
2008,07,16,06,59,13.40
2008,07,16,07,00,13.40
2008,07,16,07,01,13.40
2008,07,16,07,02,13.50
2008,07,16,07,03,13.50
2008,07,16,07,04,13.60
2008,07,16,07,05,13.60
2008,07,16,07,06,13.60
2008,07,16,07,07,13.70
2008,07,16,07,08,13.70
2008,07,16,07,09,13.70
2008,07,16,07,10,13.70
2008,07,16,07,11,13.80
2008,07,16,07,12,13.70
2008,07,16,07,13,13.70
2008,07,16,07,14,13.70
2008,07,16,07,15,13.70
2008,07,16,07,16,13.70
2008,07,16,07,17,13.60
2008,07,16,07,18,13.60
2008,07,16,07,19,13.60
2008,07,16,07,20,13.70
2008,07,16,07,21,13.70
2008,07,16,07,22,13.70
2008,07,16,07,23,13.70
2008,07,16,07,24,13.70
2008,07,16,07,25,13.80
2008,07,16,07,26,13.80
2008,07,16,07,27,13.80
2008,07,16,07,28,13.90
2008,07,16,07,29,13.90
2008,07,16,07,30,13.90
2008,07,16,07,31,13.90
2008,07,16,07,32,13.90
2008,07,16,07,33,13.90
2008,07,16,07,34,13.90
2008,07,16,07,35,13.90
2008,07,16,07,36,13.80
2008,07,16,07,37,13.90
2008,07,16,07,38,13.90
2008,07,16,07,39,13.90
2008,07,16,07,40,13.90
2008,07,16,07,41,13.90
2008,07,16,07,42,13.90
2008,07,16,07,43,14.00
2008,07,16,07,44,14.00
2008,07,16,07,45,14.00
2008,07,16,07,46,14.00
2008,07,16,07,47,14.00
2008,07,16,07,48,14.00
2008,07,16,07,49,14.00
2008,07,16,07,50,14.00
2008,07,16,07,51,14.10
2008,07,16,07,52,14.20
2008,07,16,07,53,14.20
2008,07,16,07,54,14.20
2008,07,16,07,55,14.30
2008,07,16,07,56,14.30
2008,07,16,07,57,14.30
2008,07,16,07,58,14.30
2008,07,16,07,59,14.20
2008,07,16,08,00,14.20
2008,07,16,08,01,14.30
2008,07,16,08,02,14.30
2008,07,16,08,03,14.30
2008,07,16,08,04,14.30
2008,07,16,08,05,14.30
2008,07,16,08,06,14.30
2008,07,16,08,07,14.30
2008,07,16,08,08,14.30
2008,07,16,08,09,14.30
2008,07,16,08,10,14.30
2008,07,16,08,11,14.40
2008,07,16,08,12,14.50
2008,07,16,08,13,14.50
2008,07,16,08,14,14.60
2008,07,16,08,15,14.60
2008,07,16,08,16,14.70
2008,07,16,08,17,14.70
2008,07,16,08,18,14.70
2008,07,16,08,19,14.70
2008,07,16,08,20,14.70
2008,07,16,08,21,14.70
2008,07,16,08,22,14.70
2008,07,16,08,23,14.70
2008,07,16,08,24,14.70
2008,07,16,08,25,14.70
2008,07,16,08,26,14.70
2008,07,16,08,27,14.80
2008,07,16,08,28,14.90
2008,07,16,08,29,15.00
2008,07,16,08,30,15.00
2008,07,16,08,31,15.10
2008,07,16,08,32,15.20
2008,07,16,08,33,15.30
2008,07,16,08,34,15.30
2008,07,16,08,35,15.30
2008,07,16,08,36,15.30
2008,07,16,08,37,15.30
2008,07,16,08,38,15.20
2008,07,16,08,39,15.20
2008,07,16,08,40,15.20
2008,07,16,08,41,15.20
2008,07,16,08,42,15.20
2008,07,16,08,43,15.30
2008,07,16,08,44,15.30
2008,07,16,08,45,15.30
2008,07,16,08,46,15.30
2008,07,16,08,47,15.30
2008,07,16,08,48,15.30
2008,07,16,08,49,15.30
2008,07,16,08,50,15.40
2008,07,16,08,51,15.50
2008,07,16,08,52,15.50
2008,07,16,08,53,15.60
2008,07,16,08,54,15.60
2008,07,16,08,55,15.60
2008,07,16,08,56,15.70
2008,07,16,08,57,15.80
2008,07,16,08,58,15.90
2008,07,16,08,59,15.90
2008,07,16,09,00,15.90
2008,07,16,09,01,15.90
2008,07,16,09,02,15.90
2008,07,16,09,03,15.90
2008,07,16,09,04,16.00
2008,07,16,09,05,16.10
2008,07,16,09,06,16.10
2008,07,16,09,07,16.20
2008,07,16,09,08,16.20
2008,07,16,09,09,16.20
2008,07,16,09,10,16.20
2008,07,16,09,11,16.20
2008,07,16,09,12,16.10
2008,07,16,09,13,16.10
2008,07,16,09,14,16.10
2008,07,16,09,15,16.10
2008,07,16,09,16,16.10
2008,07,16,09,17,16.10
2008,07,16,09,18,16.10
2008,07,16,09,19,16.10
2008,07,16,09,20,16.10
2008,07,16,09,21,16.20
2008,07,16,09,22,16.20
2008,07,16,09,23,16.20
2008,07,16,09,24,16.20
2008,07,16,09,25,16.30
2008,07,16,09,26,16.30
2008,07,16,09,27,16.30
2008,07,16,09,28,16.30
2008,07,16,09,29,16.30
2008,07,16,09,30,16.30
2008,07,16,09,31,16.30
2008,07,16,09,32,16.40
2008,07,16,09,33,16.40
2008,07,16,09,34,16.40
2008,07,16,09,35,16.40
2008,07,16,09,36,16.50
2008,07,16,09,37,16.50
2008,07,16,09,38,16.50
2008,07,16,09,39,16.60
2008,07,16,09,40,16.60
2008,07,16,09,41,16.60
2008,07,16,09,42,16.70
2008,07,16,09,43,16.70
2008,07,16,09,44,16.80
2008,07,16,09,45,16.90
2008,07,16,09,46,16.90
2008,07,16,09,47,16.90
2008,07,16,09,48,17.00
2008,07,16,09,49,17.10
2008,07,16,09,50,17.10
2008,07,16,09,51,17.20
2008,07,16,09,52,17.20
2008,07,16,09,53,17.20
2008,07,16,09,54,17.20
2008,07,16,09,55,17.30
2008,07,16,09,56,17.30
2008,07,16,09,57,17.40
2008,07,16,09,58,17.40
2008,07,16,09,59,17.40
2008,07,16,10,00,17.40
2008,07,16,10,01,17.30
2008,07,16,10,02,17.30
2008,07,16,10,03,17.30
2008,07,16,10,04,17.30
2008,07,16,10,05,17.30
2008,07,16,10,06,17.30
2008,07,16,10,07,17.30
2008,07,16,10,08,17.30
2008,07,16,10,09,17.30
2008,07,16,10,10,17.30
2008,07,16,10,11,17.30
2008,07,16,10,12,17.20
2008,07,16,10,13,17.20
2008,07,16,10,14,17.20
2008,07,16,10,15,17.20
2008,07,16,10,16,17.20
2008,07,16,10,17,17.20
2008,07,16,10,18,17.30
2008,07,16,10,19,17.40
2008,07,16,10,20,17.50
2008,07,16,10,21,17.60
2008,07,16,10,22,17.60
2008,07,16,10,23,17.60
2008,07,16,10,24,17.60
2008,07,16,10,25,17.70
2008,07,16,10,26,17.70
2008,07,16,10,27,17.80
2008,07,16,10,28,17.80
2008,07,16,10,29,17.80
2008,07,16,10,30,17.80
2008,07,16,10,31,17.80
2008,07,16,10,32,17.80
2008,07,16,10,33,17.70
2008,07,16,10,34,17.70
2008,07,16,10,35,17.60
2008,07,16,10,36,17.60
2008,07,16,10,37,17.50
2008,07,16,10,38,17.40
2008,07,16,10,39,17.40
2008,07,16,10,40,17.40
2008,07,16,10,41,17.30
2008,07,16,10,42,17.30
2008,07,16,10,43,17.30
2008,07,16,10,44,17.40
2008,07,16,10,45,17.50
2008,07,16,10,46,17.50
2008,07,16,10,47,17.60
2008,07,16,10,48,17.60
2008,07,16,10,49,17.50
2008,07,16,10,50,17.50
2008,07,16,10,51,17.50
2008,07,16,10,52,17.50
2008,07,16,10,53,17.60
2008,07,16,10,54,17.70
2008,07,16,10,55,17.80
2008,07,16,10,56,17.80
2008,07,16,10,57,17.80
2008,07,16,10,58,17.80
2008,07,16,10,59,17.80
2008,07,16,11,00,17.90
2008,07,16,11,01,17.90
2008,07,16,11,02,18.00
2008,07,16,11,03,18.00
2008,07,16,11,04,18.10
2008,07,16,11,05,18.20
2008,07,16,11,06,18.30
2008,07,16,11,07,18.30
2008,07,16,11,08,18.30
2008,07,16,11,09,18.40
2008,07,16,11,10,18.30
2008,07,16,11,11,18.30
2008,07,16,11,12,18.30
2008,07,16,11,13,18.10
2008,07,16,11,14,18.00
2008,07,16,11,15,17.90
2008,07,16,11,16,17.80
2008,07,16,11,17,17.80
2008,07,16,11,18,17.80
2008,07,16,11,19,17.80
2008,07,16,11,20,17.80
2008,07,16,11,21,17.90
2008,07,16,11,22,17.90
2008,07,16,11,23,17.80
2008,07,16,11,24,17.80
2008,07,16,11,25,17.80
2008,07,16,11,26,17.80
2008,07,16,11,27,17.80
2008,07,16,11,28,17.90
2008,07,16,11,29,18.00
2008,07,16,11,30,18.10
2008,07,16,11,31,18.30
2008,07,16,11,32,18.40
2008,07,16,11,33,18.60
2008,07,16,11,34,18.70
2008,07,16,11,35,18.80
2008,07,16,11,36,18.90
2008,07,16,11,37,18.90
2008,07,16,11,38,19.00
2008,07,16,11,39,18.90
2008,07,16,11,40,18.80
2008,07,16,11,41,18.80
2008,07,16,11,42,18.80
2008,07,16,11,43,18.80
2008,07,16,11,44,18.80
2008,07,16,11,45,18.80
2008,07,16,11,46,18.80
2008,07,16,11,47,18.70
2008,07,16,11,48,18.50
2008,07,16,11,49,18.40
2008,07,16,11,50,18.40
2008,07,16,11,51,18.40
2008,07,16,11,52,18.30
2008,07,16,11,53,18.40
2008,07,16,11,54,18.40
2008,07,16,11,55,18.40
2008,07,16,11,56,18.40
2008,07,16,11,57,18.30
2008,07,16,11,58,18.30
2008,07,16,11,59,18.20
2008,07,16,12,00,18.20
2008,07,16,12,01,18.20
2008,07,16,12,02,18.30
2008,07,16,12,03,18.40
2008,07,16,12,04,18.50
2008,07,16,12,05,18.50
2008,07,16,12,06,18.50
2008,07,16,12,07,18.50
2008,07,16,12,08,18.60
2008,07,16,12,09,18.60
2008,07,16,12,10,18.60
2008,07,16,12,11,18.70
2008,07,16,12,12,18.90
2008,07,16,12,13,19.00
2008,07,16,12,14,19.10
2008,07,16,12,15,19.10
2008,07,16,12,16,19.10
2008,07,16,12,17,19.00
2008,07,16,12,18,19.00
2008,07,16,12,19,18.90
2008,07,16,12,20,18.90
2008,07,16,12,21,18.90
2008,07,16,12,22,18.80
2008,07,16,12,23,18.80
2008,07,16,12,24,18.70
2008,07,16,12,25,18.70
2008,07,16,12,26,18.60
2008,07,16,12,27,18.60
2008,07,16,12,28,18.70
2008,07,16,12,29,18.70
2008,07,16,12,30,18.80
2008,07,16,12,31,18.80
2008,07,16,12,32,18.80
2008,07,16,12,33,18.90
2008,07,16,12,34,19.00
2008,07,16,12,35,19.10
2008,07,16,12,36,19.30
2008,07,16,12,37,19.30
2008,07,16,12,38,19.40
2008,07,16,12,39,19.40
2008,07,16,12,40,19.40
2008,07,16,12,41,19.50
2008,07,16,12,42,19.50
2008,07,16,12,43,19.50
2008,07,16,12,44,19.40
2008,07,16,12,45,19.40
2008,07,16,12,46,19.40
2008,07,16,12,47,19.40
2008,07,16,12,48,19.40
2008,07,16,12,49,19.40
2008,07,16,12,50,19.50
2008,07,16,12,51,19.50
2008,07,16,12,52,19.60
2008,07,16,12,53,19.70
2008,07,16,12,54,19.60
2008,07,16,12,55,19.50
2008,07,16,12,56,19.30
2008,07,16,12,57,19.30
2008,07,16,12,58,19.30
2008,07,16,12,59,19.30
2008,07,16,13,00,19.40
2008,07,16,13,01,19.30
2008,07,16,13,02,19.30
2008,07,16,13,03,19.20
2008,07,16,13,04,19.20
2008,07,16,13,05,19.10
2008,07,16,13,06,19.10
2008,07,16,13,07,19.10
2008,07,16,13,08,19.20
2008,07,16,13,09,19.20
2008,07,16,13,10,19.40
2008,07,16,13,11,19.50
2008,07,16,13,12,19.60
2008,07,16,13,13,19.70
2008,07,16,13,14,19.80
2008,07,16,13,15,19.90
2008,07,16,13,16,20.00
2008,07,16,13,17,20.10
2008,07,16,13,18,20.10
2008,07,16,13,19,20.00
2008,07,16,13,20,20.00
2008,07,16,13,21,19.90
2008,07,16,13,22,19.90
2008,07,16,13,23,19.90
2008,07,16,13,24,19.90
2008,07,16,13,25,20.00
2008,07,16,13,26,20.00
2008,07,16,13,27,20.00
2008,07,16,13,28,20.10
2008,07,16,13,29,20.10
2008,07,16,13,30,20.20
2008,07,16,13,31,20.30
2008,07,16,13,32,20.20
2008,07,16,13,33,20.20
2008,07,16,13,34,20.20
2008,07,16,13,35,20.20
2008,07,16,13,36,20.30
2008,07,16,13,37,20.50
2008,07,16,13,38,20.60
2008,07,16,13,39,20.70
2008,07,16,13,40,20.70
2008,07,16,13,41,20.70
2008,07,16,13,42,20.70
2008,07,16,13,43,20.60
2008,07,16,13,44,20.60
2008,07,16,13,45,20.50
2008,07,16,13,46,20.40
2008,07,16,13,47,20.30
2008,07,16,13,48,20.40
2008,07,16,13,49,20.50
2008,07,16,13,50,20.50
2008,07,16,13,51,20.50
2008,07,16,13,52,20.30
2008,07,16,13,53,20.10
2008,07,16,13,54,20.10
2008,07,16,13,55,20.10
2008,07,16,13,56,20.20
2008,07,16,13,57,20.30
2008,07,16,13,58,20.30
2008,07,16,13,59,20.30
2008,07,16,14,00,20.30
2008,07,16,14,01,20.30
2008,07,16,14,02,20.30
2008,07,16,14,03,20.40
2008,07,16,14,04,20.40
2008,07,16,14,05,20.50
2008,07,16,14,06,20.50
2008,07,16,14,07,20.40
2008,07,16,14,08,20.40
2008,07,16,14,09,20.50
2008,07,16,14,10,20.60
2008,07,16,14,11,20.70
2008,07,16,14,12,20.70
2008,07,16,14,13,20.70
2008,07,16,14,14,20.70
2008,07,16,14,15,20.70
2008,07,16,14,16,20.80
2008,07,16,14,17,20.90
2008,07,16,14,18,21.00
2008,07,16,14,19,21.00
2008,07,16,14,20,21.10
2008,07,16,14,21,21.20
2008,07,16,14,22,21.30
2008,07,16,14,23,21.40
2008,07,16,14,24,21.50
2008,07,16,14,25,21.70
2008,07,16,14,26,21.80
2008,07,16,14,27,21.80
2008,07,16,14,28,21.80
2008,07,16,14,29,21.70
2008,07,16,14,30,21.70
2008,07,16,14,31,21.70
2008,07,16,14,32,21.60
2008,07,16,14,33,21.60
2008,07,16,14,34,21.60
2008,07,16,14,35,21.60
2008,07,16,14,36,21.60
2008,07,16,14,37,21.50
2008,07,16,14,38,21.50
2008,07,16,14,39,21.50
2008,07,16,14,40,21.50
2008,07,16,14,41,21.40
2008,07,16,14,42,21.40
2008,07,16,14,43,21.20
2008,07,16,14,44,21.00
2008,07,16,14,45,20.90
2008,07,16,14,46,20.90
2008,07,16,14,47,20.90
2008,07,16,14,48,20.90
2008,07,16,14,49,20.80
2008,07,16,14,50,20.90
2008,07,16,14,51,20.90
2008,07,16,14,52,21.00
2008,07,16,14,53,21.10
2008,07,16,14,54,21.30
2008,07,16,14,55,21.30
2008,07,16,14,56,21.40
2008,07,16,14,57,21.40
2008,07,16,14,58,21.50
2008,07,16,14,59,21.50
2008,07,16,15,00,21.60
2008,07,16,15,01,21.70
2008,07,16,15,02,21.80
2008,07,16,15,03,21.80
2008,07,16,15,04,21.80
2008,07,16,15,05,21.80
2008,07,16,15,06,21.70
2008,07,16,15,07,21.60
2008,07,16,15,08,21.60
2008,07,16,15,09,21.60
2008,07,16,15,10,21.60
2008,07,16,15,11,21.70
2008,07,16,15,12,21.80
2008,07,16,15,13,21.80
2008,07,16,15,14,22.00
2008,07,16,15,15,22.00
2008,07,16,15,16,22.00
2008,07,16,15,17,22.00
2008,07,16,15,18,22.10
2008,07,16,15,19,22.00
2008,07,16,15,20,22.00
2008,07,16,15,21,21.90
2008,07,16,15,22,21.80
2008,07,16,15,23,21.70
2008,07,16,15,24,21.60
2008,07,16,15,25,21.50
2008,07,16,15,26,21.40
2008,07,16,15,27,21.30
2008,07,16,15,28,21.40
2008,07,16,15,29,21.40
2008,07,16,15,30,21.40
2008,07,16,15,31,21.60
2008,07,16,15,32,21.80
2008,07,16,15,33,21.80
2008,07,16,15,34,21.90
2008,07,16,15,35,22.00
2008,07,16,15,36,22.00
2008,07,16,15,37,22.00
2008,07,16,15,38,22.00
2008,07,16,15,39,22.00
2008,07,16,15,40,22.10
2008,07,16,15,41,22.20
2008,07,16,15,42,22.40
2008,07,16,15,43,22.50
2008,07,16,15,44,22.70
2008,07,16,15,45,22.70
2008,07,16,15,46,22.60
2008,07,16,15,47,22.50
2008,07,16,15,48,22.40
2008,07,16,15,49,22.30
2008,07,16,15,50,22.40
2008,07,16,15,51,22.50
2008,07,16,15,52,22.60
2008,07,16,15,53,22.70
2008,07,16,15,54,22.60
2008,07,16,15,55,22.60
2008,07,16,15,56,22.50
2008,07,16,15,57,22.40
2008,07,16,15,58,22.40
2008,07,16,15,59,22.40
2008,07,16,16,00,22.30
2008,07,16,16,01,22.30
2008,07,16,16,02,22.30
2008,07,16,16,03,22.30
2008,07,16,16,04,22.30
2008,07,16,16,05,22.20
2008,07,16,16,06,22.20
2008,07,16,16,07,22.10
2008,07,16,16,08,22.10
2008,07,16,16,09,22.10
2008,07,16,16,10,22.20
2008,07,16,16,11,22.20
2008,07,16,16,12,22.30
2008,07,16,16,13,22.40
2008,07,16,16,14,22.50
2008,07,16,16,15,22.60
2008,07,16,16,16,22.60
2008,07,16,16,17,22.70
2008,07,16,16,18,22.70
2008,07,16,16,19,22.60
2008,07,16,16,20,22.60
2008,07,16,16,21,22.50
2008,07,16,16,22,22.40
2008,07,16,16,23,22.40
2008,07,16,16,24,22.40
2008,07,16,16,25,22.40
2008,07,16,16,26,22.50
2008,07,16,16,27,22.60
2008,07,16,16,28,22.60
2008,07,16,16,29,22.50
2008,07,16,16,30,22.50
2008,07,16,16,31,22.40
2008,07,16,16,32,22.30
2008,07,16,16,33,22.20
2008,07,16,16,34,22.10
2008,07,16,16,35,22.00
2008,07,16,16,36,21.90
2008,07,16,16,37,21.90
2008,07,16,16,38,21.90
2008,07,16,16,39,21.90
2008,07,16,16,40,21.90
2008,07,16,16,41,21.90
2008,07,16,16,42,21.90
2008,07,16,16,43,22.00
2008,07,16,16,44,22.00
2008,07,16,16,45,22.00
2008,07,16,16,46,22.10
2008,07,16,16,47,22.10
2008,07,16,16,48,22.20
2008,07,16,16,49,22.20
2008,07,16,16,50,22.30
2008,07,16,16,51,22.30
2008,07,16,16,52,22.30
2008,07,16,16,53,22.30
2008,07,16,16,54,22.30
2008,07,16,16,55,22.20
2008,07,16,16,56,22.20
2008,07,16,16,57,22.20
2008,07,16,16,58,22.10
2008,07,16,16,59,22.20
2008,07,16,17,00,22.20
2008,07,16,17,01,22.30
2008,07,16,17,02,22.40
2008,07,16,17,03,22.40
2008,07,16,17,04,22.40
2008,07,16,17,05,22.40
2008,07,16,17,06,22.50
2008,07,16,17,07,22.50
2008,07,16,17,08,22.60
2008,07,16,17,09,22.70
2008,07,16,17,10,22.70
2008,07,16,17,11,22.80
2008,07,16,17,12,22.80
2008,07,16,17,13,22.80
2008,07,16,17,14,22.80
2008,07,16,17,15,22.80
2008,07,16,17,16,22.90
2008,07,16,17,17,22.90
2008,07,16,17,18,22.90
2008,07,16,17,19,22.90
2008,07,16,17,20,22.90
2008,07,16,17,21,22.80
2008,07,16,17,22,22.80
2008,07,16,17,23,22.80
2008,07,16,17,24,22.90
2008,07,16,17,25,22.90
2008,07,16,17,26,23.00
2008,07,16,17,27,23.10
2008,07,16,17,28,23.10
2008,07,16,17,29,23.10
2008,07,16,17,30,23.10
2008,07,16,17,31,23.10
2008,07,16,17,32,23.10
2008,07,16,17,33,23.10
2008,07,16,17,34,23.10
2008,07,16,17,35,23.10
2008,07,16,17,36,23.10
2008,07,16,17,37,23.10
2008,07,16,17,38,23.10
2008,07,16,17,39,23.10
2008,07,16,17,40,23.10
2008,07,16,17,41,23.10
2008,07,16,17,42,23.10
2008,07,16,17,43,23.20
2008,07,16,17,44,23.20
2008,07,16,17,45,23.10
2008,07,16,17,46,23.00
2008,07,16,17,47,22.90
2008,07,16,17,48,22.90
2008,07,16,17,49,22.80
2008,07,16,17,50,22.80
2008,07,16,17,51,22.70
2008,07,16,17,52,22.70
2008,07,16,17,53,22.70
2008,07,16,17,54,22.70
2008,07,16,17,55,22.70
2008,07,16,17,56,22.60
2008,07,16,17,57,22.50
2008,07,16,17,58,22.40
2008,07,16,17,59,22.40
2008,07,16,18,00,22.40
2008,07,16,18,01,22.40
2008,07,16,18,02,22.40
2008,07,16,18,03,22.40
2008,07,16,18,04,22.40
2008,07,16,18,05,22.30
2008,07,16,18,06,22.20
2008,07,16,18,07,22.00
2008,07,16,18,08,21.90